User: anonymous   Login
Location: Unspecified
(0.0000°N, 0.0000°E)
Time: 01:58:15
(UTC+00:00)
Language:

AIST 1 - Orbit

View from above orbital plane
View from above orbital plane
View from above satellite
View from above satellite

Ground track
Ground track

The orbit data is extracted from the following two-line orbital elements,

1 39492U 13078C   18055.48773510  .00000141  00000-0  12845-4 0  9990
2 39492  82.4195 301.3566 0018530 280.6742  79.2389 14.87690888225723
Epoch (UTC): 24 February 2018 11:42:20
Eccentricity: 0.0018530
inclination: 82.4195°
perigee height: 592 km
apogee height: 618 km
right ascension of ascending node: 301.3566°
argument of perigee: 280.6742°
revolutions per day: 14.87690888
mean anomaly at epoch: 79.2389°
orbit number at epoch: 22572

The dashed part of the orbit path shows where the satellite is in the earth's shadow,  

DLR